TimeCST,TemperatureF,Dew PointF,Humidity,Sea Level PressureIn,VisibilityMPH,Wind Direction,Wind SpeedMPH,Gust SpeedMPH,PrecipitationIn,Events,Conditions,WindDirDegrees,DateUTC
12:53 AM,15.1,12.0,88,30.00,4.0,NNW,6.9,-,N/A,,Clear,340,2012-12-24 06:53:00
1:32 AM,14.0,12.2,93,29.94,4.0,NNW,6.9,-,N/A,,Scattered Clouds,340,2012-12-24 07:32:00
1:41 AM,14.0,12.2,93,29.94,4.0,North,6.9,-,N/A,,Mostly Cloudy,350,2012-12-24 07:41:00
1:53 AM,14.0,12.0,92,29.99,4.0,NNW,10.4,-,N/A,,Overcast,340,2012-12-24 07:53:00
2:06 AM,14.0,12.2,93,29.94,3.0,North,5.8,-,N/A,,Overcast,350,2012-12-24 08:06:00
2:30 AM,14.0,12.2,93,29.94,2.0,North,10.4,-,N/A,,Overcast,350,2012-12-24 08:30:00
2:53 AM,14.0,12.0,92,29.99,2.0,NNW,9.2,-,N/A,,Overcast,330,2012-12-24 08:53:00
3:16 AM,15.8,12.2,86,29.95,3.0,NNW,8.1,-,N/A,,Overcast,340,2012-12-24 09:16:00
3:50 AM,15.8,12.2,86,29.94,2.5,NW,13.8,-,N/A,,Overcast,320,2012-12-24 09:50:00
3:53 AM,15.1,12.9,91,29.99,2.5,NW,12.7,-,N/A,,Overcast,320,2012-12-24 09:53:00
4:03 AM,15.8,12.2,86,29.94,3.0,NNW,11.5,-,N/A,,Overcast,340,2012-12-24 10:03:00
4:53 AM,17.1,14.0,88,30.00,4.0,NNW,9.2,-,N/A,,Overcast,330,2012-12-24 10:53:00
5:13 AM,17.6,15.8,93,29.96,4.0,NNW,6.9,-,N/A,,Overcast,330,2012-12-24 11:13:00
5:53 AM,19.0,16.0,88,30.03,5.0,NW,16.1,23.0,N/A,,Overcast,320,2012-12-24 11:53:00
6:53 AM,19.0,16.0,88,30.05,5.0,NW,12.7,-,N/A,,Overcast,310,2012-12-24 12:53:00
7:53 AM,18.0,14.0,84,30.05,6.0,NNW,10.4,-,N/A,,Overcast,330,2012-12-24 13:53:00
8:53 AM,18.0,14.0,84,30.06,4.0,NW,15.0,18.4,N/A,,Overcast,320,2012-12-24 14:53:00
9:53 AM,17.1,12.0,81,30.11,4.0,NW,12.7,-,0.00,Snow,Light Snow,310,2012-12-24 15:53:00
10:15 AM,17.6,10.4,73,30.05,7.0,NW,19.6,-,0.00,Snow,Light Snow,310,2012-12-24 16:15:00
10:53 AM,17.1,9.0,71,30.11,6.0,NW,12.7,-,0.00,Snow,Light Snow,320,2012-12-24 16:53:00
11:53 AM,17.1,9.0,71,30.12,7.0,NW,17.3,-,0.00,Snow,Light Snow,310,2012-12-24 17:53:00
12:53 PM,18.0,10.0,71,30.09,7.0,NNW,12.7,21.9,0.00,Snow,Light Snow,330,2012-12-24 18:53:00
1:53 PM,19.9,10.0,65,30.08,10.0,NNW,17.3,23.0,0.00,,Scattered Clouds,340,2012-12-24 19:53:00
2:53 PM,19.9,10.9,68,30.10,10.0,North,15.0,19.6,N/A,,Scattered Clouds,350,2012-12-24 20:53:00
3:45 PM,19.4,10.4,68,30.07,10.0,North,11.5,-,N/A,,Mostly Cloudy,350,2012-12-24 21:45:00
3:53 PM,19.0,10.9,71,30.13,10.0,North,11.5,-,N/A,,Mostly Cloudy,350,2012-12-24 21:53:00
4:41 PM,19.4,10.4,68,30.10,10.0,NNW,10.4,-,N/A,,Partly Cloudy,330,2012-12-24 22:41:00
4:53 PM,18.0,10.0,71,30.17,10.0,NNW,9.2,-,N/A,,Partly Cloudy,340,2012-12-24 22:53:00
5:53 PM,18.0,10.9,74,30.18,10.0,North,11.5,-,N/A,,Clear,350,2012-12-24 23:53:00
6:53 PM,18.0,10.9,74,30.19,10.0,North,15.0,-,N/A,,Clear,360,2012-12-25 00:53:00
7:53 PM,17.1,10.0,74,30.19,10.0,North,15.0,21.9,N/A,,Clear,10,2012-12-25 01:53:00
8:53 PM,16.0,9.0,74,30.19,10.0,NNE,15.0,-,N/A,,Clear,20,2012-12-25 02:53:00
9:53 PM,15.1,9.0,77,30.20,10.0,North,12.7,-,N/A,,Clear,10,2012-12-25 03:53:00
10:53 PM,14.0,8.1,77,30.24,10.0,NNE,10.4,-,N/A,,Partly Cloudy,20,2012-12-25 04:53:00
11:53 PM,12.0,7.0,80,30.26,10.0,North,9.2,-,N/A,,Clear,10,2012-12-25 05:53:00